| time (UTC) | temp C | wind direction | speed KPH | gust KPH | rain 1hr cm | rain 24hr cm | rain mn cm | humidity % | barometer mb |
| 20260502220302 | 18 | 174 | 4.8 | 4.8 | 0.00 | 0.00 | 0.00 | 28 | 973.2 |
| 20260502215759 | 18 | 246 | 9.7 | 11.3 | 0.00 | 0.00 | 0.00 | 28 | 972.9 |
| 20260502215257 | 18 | 261 | 6.4 | 8.0 | 0.00 | 0.00 | 0.00 | 28 | 973.2 |
| 20260502214753 | 18 | 276 | 3.2 | 3.2 | 0.00 | 0.00 | 0.00 | 29 | 973.2 |
| 20260502214250 | 18 | 228 | 8.0 | 9.7 | 0.00 | 0.00 | 0.00 | 29 | 973.2 |
| 20260502213748 | 18 | 306 | 8.0 | 8.0 | 0.00 | 0.00 | 0.00 | 28 | 973.2 |
| 20260502213245 | 18 | 258 | 6.4 | 6.4 | 0.00 | 0.00 | 0.00 | 29 | 973.2 |
| 20260502212744 | 18 | 262 | 9.7 | 11.3 | 0.00 | 0.00 | 0.00 | 28 | 973.6 |
| 20260502212242 | 18 | 218 | 6.4 | 6.4 | 0.00 | 0.00 | 0.00 | 28 | 973.6 |
| 20260502211737 | 18 | 318 | 3.2 | 3.2 | 0.00 | 0.00 | 0.00 | 26 | 973.6 |
| 20260502211234 | 18 | 305 | 6.4 | 8.0 | 0.00 | 0.00 | 0.00 | 31 | 973.6 |
| 20260502210731 | 18 | 316 | 9.7 | 9.7 | 0.00 | 0.00 | 0.00 | 28 | 973.6 |
| 20260502210229 | 18 | 258 | 6.4 | 6.4 | 0.00 | 0.00 | 0.00 | 31 | 973.9 |
| 20260502205726 | 17 | 275 | 9.7 | 11.3 | 0.00 | 0.00 | 0.00 | 29 | 973.9 |
| 20260502205222 | 18 | 234 | 6.4 | 8.0 | 0.00 | 0.00 | 0.00 | 29 | 973.9 |
| 20260502204719 | 18 | 138 | 9.7 | 9.7 | 0.00 | 0.00 | 0.00 | 28 | 974.3 |
| 20260502204217 | 17 | 194 | 4.8 | 4.8 | 0.00 | 0.00 | 0.00 | 27 | 973.9 |
| 20260502203714 | 17 | 252 | 9.7 | 9.7 | 0.00 | 0.00 | 0.00 | 28 | 974.3 |
| 20260502203212 | 18 | 269 | 6.4 | 6.4 | 0.00 | 0.00 | 0.00 | 29 | 974.3 |
| 20260502202706 | 18 | 296 | 6.4 | 8.0 | 0.00 | 0.00 | 0.00 | 28 | 974.6 |
| 20260502202204 | 18 | 324 | 9.7 | 11.3 | 0.00 | 0.00 | 0.00 | 28 | 974.3 |
| 20260502201702 | 17 | 200 | 12.9 | 12.9 | 0.00 | 0.00 | 0.00 | 27 | 974.3 |
| 20260502201158 | 17 | 352 | 12.9 | 12.9 | 0.00 | 0.00 | 0.00 | 27 | 974.6 |
| 20260502200653 | 17 | 234 | 3.2 | 3.2 | 0.00 | 0.00 | 0.00 | 28 | 974.6 |
| 20260502200150 | 17 | 186 | 9.7 | 9.7 | 0.00 | 0.00 | 0.00 | 27 | 974.6 |
| 20260502195648 | 17 | 234 | 11.3 | 11.3 | 0.00 | 0.00 | 0.00 | 29 | 974.9 |
| 20260502195144 | 17 | 234 | 9.7 | 9.7 | 0.00 | 0.00 | 0.00 | 28 | 974.9 |
| 20260502194641 | 17 | 264 | 3.2 | 3.2 | 0.00 | 0.00 | 0.00 | 32 | 974.6 |
| 20260502194138 | 16 | 234 | 12.9 | 12.9 | 0.00 | 0.00 | 0.00 | 29 | 974.9 |
| 20260502193634 | 16 | 233 | 9.7 | 11.3 | 0.00 | 0.00 | 0.00 | 27 | 974.9 |
| 20260502193131 | 16 | 12 | 0.0 | 0.0 | 0.00 | 0.00 | 0.00 | 28 | 975.3 |
| 20260502192627 | 16 | 243 | 9.7 | 9.7 | 0.00 | 0.00 | 0.00 | 28 | 974.9 |
| 20260502192125 | 17 | 260 | 9.7 | 11.3 | 0.00 | 0.00 | 0.00 | 27 | 975.3 |
| 20260502191621 | 16 | 262 | 3.2 | 3.2 | 0.00 | 0.00 | 0.00 | 26 | 975.3 |
| 20260502191119 | 16 | 121 | 3.2 | 3.2 | 0.00 | 0.00 | 0.00 | 27 | 975.3 |
| 20260502190616 | 16 | 222 | 3.2 | 3.2 | 0.00 | 0.00 | 0.00 | 27 | 975.6 |
| 20260502190114 | 16 | 233 | 3.2 | 3.2 | 0.00 | 0.00 | 0.00 | 27 | 975.6 |
| 20260502185608 | 16 | 252 | 3.2 | 3.2 | 0.00 | 0.00 | 0.00 | 28 | 975.6 |
| 20260502185105 | 16 | 276 | 3.2 | 3.2 | 0.00 | 0.00 | 0.00 | 30 | 976.0 |
| 20260502184601 | 15 | 212 | 8.0 | 8.0 | 0.00 | 0.00 | 0.00 | 29 | 975.6 |
| 20260502184057 | 16 | 198 | 8.0 | 9.7 | 0.00 | 0.00 | 0.00 | 30 | 976.0 |
| 20260502183554 | 15 | 173 | 12.9 | 14.5 | 0.00 | 0.00 | 0.00 | 29 | 976.0 |
| 20260502183050 | 15 | 256 | 3.2 | 3.2 | 0.00 | 0.00 | 0.00 | 29 | 976.0 |
| 20260502182545 | 15 | 270 | 8.0 | 9.7 | 0.00 | 0.00 | 0.00 | 32 | 976.3 |
| 20260502182041 | 15 | 246 | 8.0 | 8.0 | 0.00 | 0.00 | 0.00 | 34 | 976.6 |
| 20260502181539 | 15 | 240 | 3.2 | 3.2 | 0.00 | 0.00 | 0.00 | 30 | 976.3 |
| 20260502181038 | 15 | 276 | 6.4 | 6.4 | 0.00 | 0.00 | 0.00 | 31 | 976.6 |
| 20260502180535 | 15 | 216 | 9.7 | 9.7 | 0.00 | 0.00 | 0.00 | 31 | 976.3 |
| 20260502170453 | 13 | 222 | 6.4 | 8.0 | 0.00 | 0.00 | 0.00 | 31 | 977.3 |
| 20260502163937 | 13 | 277 | 3.2 | 3.2 | 0.00 | 0.00 | 0.00 | 32 | 977.6 |
| 20260502163433 | 12 | 228 | 6.4 | 8.0 | 0.00 | 0.00 | 0.00 | 36 | 977.6 |
| 20260502162931 | 12 | 290 | 9.7 | 9.7 | 0.00 | 0.00 | 0.00 | 36 | 977.6 |
| 20260502162427 | 13 | 256 | 3.2 | 3.2 | 0.00 | 0.00 | 0.00 | 35 | 978.0 |
| 20260502161924 | 12 | 169 | 8.0 | 8.0 | 0.00 | 0.00 | 0.00 | 34 | 978.0 |
| 20260502161420 | 12 | 234 | 11.3 | 11.3 | 0.00 | 0.00 | 0.00 | 34 | 977.6 |
| 20260502160919 | 12 | 210 | 3.2 | 3.2 | 0.00 | 0.00 | 0.00 | 32 | 978.0 |
| 20260502160416 | 12 | 285 | 9.7 | 11.3 | 0.00 | 0.00 | 0.00 | 32 | 977.6 |
| 20260502151849 | 12 | 316 | 6.4 | 6.4 | 0.00 | 0.00 | 0.00 | 34 | 978.3 |
| 20260502151345 | 11 | 211 | 6.4 | 6.4 | 0.00 | 0.00 | 0.00 | 35 | 978.0 |
| 20260502150843 | 11 | 240 | 6.4 | 6.4 | 0.00 | 0.00 | 0.00 | 39 | 978.3 |
| 20260502150339 | 11 | 234 | 6.4 | 6.4 | 0.00 | 0.00 | 0.00 | 40 | 978.7 |
| 20260502130727 | 5 | 228 | 6.4 | 6.4 | 0.00 | 0.00 | 0.00 | 64 | 978.7 |
| 20260502130225 | 5 | 246 | 3.2 | 3.2 | 0.00 | 0.00 | 0.00 | 66 | 978.7 |
| 20260502123711 | 2 | 228 | 3.2 | 3.2 | 0.00 | 0.00 | 0.00 | 72 | 978.7 |
| 20260502123208 | 2 | 228 | 3.2 | 3.2 | 0.00 | 0.00 | 0.00 | 72 | 978.7 |
| 20260502122704 | 2 | 233 | 6.4 | 6.4 | 0.00 | 0.00 | 0.00 | 71 | 978.7 |
| 20260502122201 | 2 | 244 | 3.2 | 3.2 | 0.00 | 0.00 | 0.00 | 70 | 978.3 |
| 20260502121659 | 2 | 234 | 3.2 | 3.2 | 0.00 | 0.00 | 0.00 | 71 | 978.7 |
| 20260502121156 | 1 | 234 | 3.2 | 3.2 | 0.00 | 0.00 | 0.00 | 72 | 978.7 |
| 20260502120653 | 1 | 234 | 3.2 | 3.2 | 0.00 | 0.00 | 0.00 | 73 | 978.3 |
| 20260502120150 | 1 | 234 | 3.2 | 3.2 | 0.00 | 0.00 | 0.00 | 73 | 978.3 |
| 20260502115647 | 1 | 234 | 3.2 | 3.2 | 0.00 | 0.00 | 0.00 | 73 | 978.3 |
| 20260502115143 | 1 | 234 | 3.2 | 3.2 | 0.00 | 0.00 | 0.00 | 73 | 978.7 |
| 20260502114639 | 1 | 234 | 3.2 | 3.2 | 0.00 | 0.00 | 0.00 | 74 | 978.3 |
| 20260502114137 | 1 | 240 | 3.2 | 3.2 | 0.00 | 0.00 | 0.00 | 75 | 978.7 |
| 20260502113634 | 0 | 240 | 3.2 | 3.2 | 0.00 | 0.00 | 0.00 | 76 | 978.3 |
| 20260502113132 | 0 | 240 | 3.2 | 3.2 | 0.00 | 0.00 | 0.00 | 76 | 978.7 |
| 20260502112630 | 0 | 240 | 3.2 | 3.2 | 0.00 | 0.00 | 0.00 | 76 | 978.0 |
| 20260502112127 | 0 | 240 | 3.2 | 3.2 | 0.00 | 0.00 | 0.00 | 76 | 978.0 |
| 20260502111625 | 0 | 240 | 3.2 | 3.2 | 0.00 | 0.00 | 0.00 | 77 | 978.0 |
| 20260502111122 | 0 | 240 | 3.2 | 3.2 | 0.00 | 0.00 | 0.00 | 77 | 978.3 |
| 20260502110620 | 0 | 240 | 3.2 | 3.2 | 0.00 | 0.00 | 0.00 | 77 | 978.3 |
| 20260502110117 | 0 | 240 | 3.2 | 3.2 | 0.00 | 0.00 | 0.00 | 77 | 978.3 |
| 20260502105614 | 0 | 240 | 3.2 | 3.2 | 0.00 | 0.00 | 0.00 | 77 | 978.3 |
| 20260502105111 | 0 | 240 | 3.2 | 3.2 | 0.00 | 0.00 | 0.00 | 76 | 978.3 |
| 20260502104608 | 0 | 240 | 3.2 | 3.2 | 0.00 | 0.00 | 0.00 | 76 | 978.3 |
| 20260502104106 | 1 | 240 | 3.2 | 3.2 | 0.00 | 0.00 | 0.00 | 76 | 978.3 |
| 20260502103603 | 1 | 244 | 3.2 | 3.2 | 0.00 | 0.00 | 0.00 | 76 | 978.3 |
| 20260502103101 | 1 | 244 | 3.2 | 3.2 | 0.00 | 0.00 | 0.00 | 75 | 978.0 |
| 20260502102557 | 1 | 244 | 3.2 | 3.2 | 0.00 | 0.00 | 0.00 | 75 | 978.3 |
| 20260502102054 | 1 | 244 | 3.2 | 3.2 | 0.00 | 0.00 | 0.00 | 75 | 978.3 |
| 20260502101552 | 1 | 244 | 3.2 | 3.2 | 0.00 | 0.00 | 0.00 | 75 | 978.0 |
| 20260502101050 | 1 | 246 | 3.2 | 3.2 | 0.00 | 0.00 | 0.00 | 73 | 978.0 |
| 20260502100549 | 1 | 246 | 3.2 | 3.2 | 0.00 | 0.00 | 0.00 | 74 | 978.3 |
| 20260502091523 | 1 | 270 | 0.0 | 0.0 | 0.00 | 0.00 | 0.00 | 71 | 978.3 |
| 20260502091021 | 1 | 270 | 0.0 | 0.0 | 0.00 | 0.00 | 0.00 | 71 | 978.3 |
| 20260502090517 | 1 | 270 | 0.0 | 0.0 | 0.00 | 0.00 | 0.00 | 71 | 978.0 |
| 20260502071412 | 2 | 0 | 0.0 | 0.0 | 0.00 | 0.00 | 0.00 | 65 | 978.3 |
| 20260502070910 | 2 | 0 | 0.0 | 0.0 | 0.00 | 0.00 | 0.00 | 66 | 978.3 |
| 20260502070408 | 2 | 0 | 0.0 | 0.0 | 0.00 | 0.00 | 0.00 | 66 | 978.3 |
| 20260502065906 | 2 | 0 | 0.0 | 0.0 | 0.00 | 0.00 | 0.00 | 66 | 978.3 |
| 20260502065404 | 2 | 0 | 0.0 | 0.0 | 0.00 | 0.00 | 0.00 | 65 | 978.3 |
| 20260502064902 | 2 | 0 | 0.0 | 0.0 | 0.00 | 0.00 | 0.00 | 66 | 978.7 |
| 20260502064400 | 2 | 0 | 0.0 | 0.0 | 0.00 | 0.00 | 0.00 | 66 | 978.7 |
| 20260502063856 | 2 | 0 | 0.0 | 0.0 | 0.00 | 0.00 | 0.00 | 65 | 978.7 |
| 20260502063354 | 2 | 0 | 0.0 | 0.0 | 0.00 | 0.00 | 0.00 | 65 | 978.7 |
| 20260502062851 | 2 | 0 | 0.0 | 0.0 | 0.00 | 0.00 | 0.00 | 64 | 978.7 |
| 20260502062348 | 2 | 0 | 0.0 | 0.0 | 0.00 | 0.00 | 0.00 | 65 | 978.7 |
| 20260502061847 | 3 | 0 | 0.0 | 0.0 | 0.00 | 0.00 | 0.00 | 63 | 978.7 |
| 20260502061345 | 3 | 0 | 0.0 | 0.0 | 0.00 | 0.00 | 0.00 | 62 | 978.3 |
| 20260502060841 | 3 | 0 | 0.0 | 0.0 | 0.00 | 0.00 | 0.00 | 62 | 978.7 |
| 20260502060336 | 3 | 0 | 0.0 | 0.0 | 0.00 | 0.00 | 0.00 | 62 | 978.3 |
| 20260502055834 | 3 | 0 | 0.0 | 0.0 | 0.00 | 0.00 | 0.00 | 62 | 978.7 |
| 20260502055331 | 3 | 0 | 0.0 | 0.0 | 0.00 | 0.00 | 0.00 | 61 | 978.3 |
| 20260502054831 | 3 | 0 | 0.0 | 0.0 | 0.00 | 0.00 | 0.00 | 62 | 978.7 |
| 20260502054328 | 3 | 0 | 0.0 | 0.0 | 0.00 | 0.00 | 0.00 | 59 | 978.3 |
| 20260502053825 | 3 | 0 | 0.0 | 0.0 | 0.00 | 0.00 | 0.00 | 60 | 978.3 |
| 20260502053322 | 3 | 0 | 0.0 | 0.0 | 0.00 | 0.00 | 0.00 | 60 | 978.3 |
| 20260502052820 | 3 | 0 | 0.0 | 0.0 | 0.00 | 0.00 | 0.00 | 60 | 978.3 |
| 20260502052318 | 3 | 0 | 0.0 | 0.0 | 0.00 | 0.00 | 0.00 | 59 | 978.3 |
| 20260502051815 | 3 | 0 | 0.0 | 0.0 | 0.00 | 0.00 | 0.00 | 60 | 978.3 |
| 20260502051314 | 3 | 0 | 0.0 | 0.0 | 0.00 | 0.00 | 0.00 | 59 | 978.3 |
| 20260502050810 | 3 | 0 | 0.0 | 0.0 | 0.00 | 0.00 | 0.00 | 59 | 978.3 |
| 20260502050306 | 3 | 0 | 0.0 | 0.0 | 0.00 | 0.00 | 0.00 | 60 | 978.3 |
| 20260502045804 | 3 | 0 | 0.0 | 0.0 | 0.00 | 0.00 | 0.00 | 59 | 978.0 |
| 20260502045300 | 4 | 0 | 0.0 | 0.0 | 0.00 | 0.00 | 0.00 | 59 | 978.0 |
| 20260502044757 | 4 | 0 | 0.0 | 0.0 | 0.00 | 0.00 | 0.00 | 58 | 978.3 |
| 20260502044253 | 4 | 0 | 3.2 | 3.2 | 0.00 | 0.00 | 0.00 | 59 | 978.0 |
| 20260502043751 | 4 | 0 | 0.0 | 0.0 | 0.00 | 0.00 | 0.00 | 57 | 978.3 |
| 20260502043248 | 4 | 0 | 0.0 | 0.0 | 0.00 | 0.00 | 0.00 | 55 | 978.3 |
| 20260502042747 | 4 | 0 | 0.0 | 0.0 | 0.00 | 0.00 | 0.00 | 57 | 978.0 |
| 20260502042245 | 4 | 0 | 0.0 | 0.0 | 0.00 | 0.00 | 0.00 | 56 | 978.3 |
| 20260502041743 | 4 | 0 | 0.0 | 0.0 | 0.00 | 0.00 | 0.00 | 57 | 978.0 |
| 20260502041240 | 4 | 0 | 0.0 | 0.0 | 0.00 | 0.00 | 0.00 | 59 | 978.3 |
| 20260502040736 | 4 | 0 | 0.0 | 0.0 | 0.00 | 0.00 | 0.00 | 57 | 978.3 |
| 20260502040233 | 4 | 0 | 0.0 | 0.0 | 0.00 | 0.00 | 0.00 | 57 | 978.0 |
| 20260502035729 | 4 | 0 | 0.0 | 0.0 | 0.00 | 0.00 | 0.00 | 57 | 978.3 |
| 20260502035226 | 4 | 0 | 0.0 | 0.0 | 0.00 | 0.00 | 0.00 | 59 | 978.0 |
| 20260502034724 | 4 | 0 | 0.0 | 0.0 | 0.00 | 0.00 | 0.00 | 59 | 978.3 |
| 20260502034222 | 4 | 0 | 0.0 | 0.0 | 0.00 | 0.00 | 0.00 | 59 | 978.3 |
| 20260502033720 | 5 | 0 | 0.0 | 0.0 | 0.00 | 0.00 | 0.00 | 58 | 978.3 |
| 20260502033217 | 5 | 0 | 0.0 | 0.0 | 0.00 | 0.00 | 0.00 | 56 | 978.0 |
| 20260502032714 | 5 | 0 | 0.0 | 0.0 | 0.00 | 0.00 | 0.00 | 57 | 978.3 |
| 20260502032209 | 5 | 0 | 0.0 | 0.0 | 0.00 | 0.00 | 0.00 | 57 | 978.3 |
| 20260502031708 | 5 | 0 | 0.0 | 0.0 | 0.00 | 0.00 | 0.00 | 57 | 978.0 |
| 20260502031205 | 5 | 0 | 0.0 | 0.0 | 0.00 | 0.00 | 0.00 | 58 | 978.0 |
| 20260502030704 | 5 | 0 | 0.0 | 0.0 | 0.00 | 0.00 | 0.00 | 57 | 978.0 |
| 20260502030202 | 5 | 0 | 0.0 | 0.0 | 0.00 | 0.00 | 0.00 | 56 | 978.3 |
| 20260502025658 | 5 | 0 | 0.0 | 0.0 | 0.00 | 0.00 | 0.00 | 56 | 978.0 |
| 20260502025156 | 5 | 0 | 0.0 | 0.0 | 0.00 | 0.00 | 0.00 | 56 | 978.0 |
| 20260502024654 | 5 | 0 | 0.0 | 0.0 | 0.00 | 0.00 | 0.00 | 55 | 978.0 |
| 20260502024152 | 6 | 0 | 0.0 | 0.0 | 0.00 | 0.00 | 0.00 | 53 | 978.0 |
| 20260502023650 | 6 | 316 | 0.0 | 0.0 | 0.00 | 0.00 | 0.00 | 53 | 978.3 |
| 20260502023147 | 6 | 300 | 0.0 | 0.0 | 0.00 | 0.00 | 0.00 | 51 | 978.0 |
| 20260502022644 | 6 | 323 | 3.2 | 3.2 | 0.00 | 0.00 | 0.00 | 50 | 978.0 |
| 20260502022141 | 7 | 354 | 0.0 | 0.0 | 0.00 | 0.00 | 0.00 | 49 | 978.0 |
| 20260502021638 | 7 | 354 | 0.0 | 0.0 | 0.00 | 0.00 | 0.00 | 49 | 977.6 |
| 20260502021135 | 7 | 24 | 0.0 | 0.0 | 0.00 | 0.00 | 0.00 | 48 | 978.0 |
| 20260502020632 | 7 | 18 | 0.0 | 0.0 | 0.00 | 0.00 | 0.00 | 48 | 977.6 |
| 20260502020129 | 7 | 18 | 3.2 | 3.2 | 0.00 | 0.00 | 0.00 | 47 | 978.0 |
| 20260502015627 | 7 | 6 | 0.0 | 0.0 | 0.00 | 0.00 | 0.00 | 47 | 977.6 |
| 20260502015123 | 7 | 6 | 3.2 | 3.2 | 0.00 | 0.00 | 0.00 | 46 | 977.6 |
| 20260502014620 | 7 | 336 | 3.2 | 3.2 | 0.00 | 0.00 | 0.00 | 46 | 977.3 |
| 20260502014118 | 8 | 317 | 3.2 | 3.2 | 0.00 | 0.00 | 0.00 | 44 | 977.3 |
| 20260502013613 | 8 | 12 | 3.2 | 3.2 | 0.00 | 0.00 | 0.00 | 43 | 977.3 |
| 20260502013109 | 8 | 306 | 3.2 | 3.2 | 0.00 | 0.00 | 0.00 | 44 | 977.3 |
| 20260502012607 | 8 | 317 | 6.4 | 8.0 | 0.00 | 0.00 | 0.00 | 43 | 977.3 |
| 20260502012105 | 8 | 348 | 6.4 | 6.4 | 0.00 | 0.00 | 0.00 | 42 | 977.3 |
| 20260502011601 | 8 | 330 | 3.2 | 3.2 | 0.00 | 0.00 | 0.00 | 43 | 977.3 |
| 20260502011057 | 9 | 316 | 6.4 | 6.4 | 0.00 | 0.00 | 0.00 | 41 | 977.3 |
| 20260502010555 | 9 | 30 | 6.4 | 8.0 | 0.00 | 0.00 | 0.00 | 42 | 977.0 |
| 20260502010051 | 9 | 102 | 3.2 | 3.2 | 0.00 | 0.00 | 0.00 | 41 | 977.0 |
| 20260502005549 | 10 | 12 | 4.8 | 4.8 | 0.00 | 0.00 | 0.00 | 39 | 977.0 |
| 20260502005046 | 10 | 42 | 6.4 | 6.4 | 0.00 | 0.00 | 0.00 | 39 | 977.0 |
| 20260502004542 | 10 | 30 | 6.4 | 6.4 | 0.00 | 0.00 | 0.00 | 38 | 977.0 |
| 20260502004039 | 10 | 346 | 6.4 | 8.0 | 0.00 | 0.00 | 0.00 | 38 | 977.0 |
| 20260502003537 | 10 | 300 | 6.4 | 6.4 | 0.00 | 0.00 | 0.00 | 37 | 977.0 |
| 20260502003033 | 10 | 328 | 12.9 | 12.9 | 0.00 | 0.00 | 0.00 | 36 | 977.0 |
| 20260502002530 | 10 | 30 | 14.5 | 14.5 | 0.00 | 0.00 | 0.00 | 36 | 976.6 |
| 20260502002027 | 10 | 354 | 9.7 | 9.7 | 0.00 | 0.00 | 0.00 | 36 | 977.0 |
| 20260502001525 | 10 | 312 | 9.7 | 11.3 | 0.00 | 0.00 | 0.00 | 36 | 976.6 |
| 20260502001022 | 10 | 12 | 6.4 | 6.4 | 0.00 | 0.00 | 0.00 | 37 | 977.0 |
| 20260502000520 | 10 | 24 | 12.9 | 12.9 | 0.00 | 0.00 | 0.00 | 36 | 976.6 |
| 20260502000017 | 10 | 300 | 14.5 | 14.5 | 0.00 | 0.00 | 0.00 | 36 | 976.6 |
| 20260501235513 | 10 | 24 | 6.4 | 6.4 | 0.00 | 0.00 | 0.00 | 36 | 976.6 |
| 20260501235008 | 10 | 6 | 14.5 | 14.5 | 0.00 | 0.00 | 0.00 | 35 | 976.6 |
| 20260501234504 | 10 | 318 | 14.5 | 14.5 | 0.00 | 0.00 | 0.00 | 35 | 976.6 |
| 20260501234003 | 11 | 36 | 3.2 | 3.2 | 0.00 | 0.00 | 0.00 | 35 | 976.6 |
| 20260501233500 | 11 | 6 | 12.9 | 12.9 | 0.00 | 0.00 | 0.00 | 34 | 976.3 |
| 20260501232956 | 11 | 13 | 12.9 | 12.9 | 0.00 | 0.00 | 0.00 | 36 | 976.6 |
| 20260501232453 | 11 | 60 | 8.0 | 8.0 | 0.00 | 0.00 | 0.00 | 34 | 976.6 |
| 20260501231950 | 11 | 54 | 9.7 | 11.3 | 0.00 | 0.00 | 0.00 | 35 | 976.6 |
| 20260501231449 | 10 | 66 | 6.4 | 8.0 | 0.00 | 0.00 | 0.00 | 36 | 976.6 |
| 20260501230946 | 10 | 354 | 9.7 | 11.3 | 0.00 | 0.00 | 0.00 | 37 | 976.3 |
| 20260501230445 | 10 | 228 | 8.0 | 8.0 | 0.00 | 0.00 | 0.00 | 36 | 976.3 |
| 20260501225942 | 10 | 66 | 3.2 | 3.2 | 0.00 | 0.00 | 0.00 | 36 | 976.3 |
| 20260501225440 | 10 | 102 | 6.4 | 8.0 | 0.00 | 0.00 | 0.00 | 36 | 976.3 |
| 20260501224935 | 10 | 312 | 19.3 | 20.9 | 0.00 | 0.00 | 0.00 | 36 | 976.6 |
| 20260501224433 | 10 | 12 | 8.0 | 8.0 | 0.00 | 0.00 | 0.00 | 36 | 976.6 |
| 20260501223930 | 10 | 0 | 9.7 | 9.7 | 0.00 | 0.00 | 0.00 | 35 | 976.6 |
| 20260501223426 | 10 | 330 | 9.7 | 11.3 | 0.00 | 0.00 | 0.00 | 36 | 976.3 |
| 20260501222922 | 10 | 18 | 4.8 | 4.8 | 0.00 | 0.00 | 0.00 | 36 | 976.6 |
| 20260501222419 | 10 | 90 | 4.8 | 4.8 | 0.00 | 0.00 | 0.00 | 37 | 976.6 |
| 20260501221915 | 10 | 6 | 9.7 | 11.3 | 0.00 | 0.00 | 0.00 | 36 | 976.3 |
| 20260501221413 | 10 | 324 | 9.7 | 9.7 | 0.00 | 0.00 | 0.00 | 36 | 976.6 |
| 20260501220911 | 11 | 72 | 8.0 | 9.7 | 0.00 | 0.00 | 0.00 | 36 | 976.3 |